WXM80 ListenWXM80 Stop

You find our weather info also at:

UK Metoffice

WeatherCloud

Weather Underground

Northeastern Weather Network

AWEKAS

Citizen Weather Observer Program (CWOP)

HAMweather, WeatherForYou, PWS Weather


Weather Underground History page Text

Daily Summary for October 14, 2016 Units:  English    Metric   Both
« Previous Day
Next Day »
Daily Weekly Monthly Yearly Custom
  High: Low: Average:
Temperature: 63.8 °F 48.4 °F 55.3 °F
Dew Point: 49.1 °F 39.0 °F 42.6 °F
Humidity: 79 % 43 % 64 %
Wind Speed: 15.0 mph 0.0 mph 3.8 mph
Wind Gust: 19.6 mph - -
Wind:- - SE
Pressure: 30.36 in 30.14 in -
Precipitation: 0.00 in    
Historical Graphs
 
 
Tabular Data for October 14, 2016
Time Temperature Dew Point Pressure Wind Wind Speed Wind Gust Humidity Rainfall Rate (Hourly)
00:00 56.6 °F 49.1 °F 30.14 in NNE 7.4 mph 11.5 mph 76 % 0.00 in
00:05 56.4 °F 48.2 °F 30.15 in NE 4.1 mph 11.5 mph 74 % 0.00 in
00:16 56.2 °F 48.4 °F 30.15 in NE 4.4 mph 10.4 mph 75 % 0.00 in
00:21 56.0 °F 48.5 °F 30.15 in North 3.5 mph 6.9 mph 76 % 0.00 in
00:26 55.9 °F 48.1 °F 30.16 in NW 4.0 mph 11.5 mph 75 % 0.00 in
00:36 55.6 °F 47.1 °F 30.16 in North 6.7 mph 10.0 mph 73 % 0.00 in
00:41 55.5 °F 47.0 °F 30.16 in North 0.1 mph 1.2 mph 73 % 0.00 in
00:46 55.4 °F 46.9 °F 30.16 in North 1.4 mph 5.8 mph 73 % 0.00 in
00:51 55.3 °F 46.4 °F 30.16 in NNW 3.7 mph 6.9 mph 72 % 0.00 in
00:56 55.1 °F 46.6 °F 30.16 in NNW 3.7 mph 9.2 mph 73 % 0.00 in
01:02 55.0 °F 46.5 °F 30.16 in NNE 4.5 mph 8.1 mph 73 % 0.00 in
01:07 54.8 °F 45.6 °F 30.16 in NNE 6.7 mph 10.4 mph 71 % 0.00 in
01:12 54.8 °F 45.2 °F 30.16 in NNW 5.7 mph 10.4 mph 70 % 0.00 in
01:17 54.7 °F 45.5 °F 30.16 in NNW 1.8 mph 6.9 mph 71 % 0.00 in
01:22 54.6 °F 45.4 °F 30.16 in North 5.5 mph 9.2 mph 71 % 0.00 in
01:27 54.5 °F 45.3 °F 30.16 in North 2.0 mph 4.6 mph 71 % 0.00 in
01:37 54.3 °F 45.5 °F 30.16 in NNE 5.0 mph 8.1 mph 72 % 0.00 in
01:42 54.1 °F 45.6 °F 30.17 in NW 1.9 mph 7.0 mph 73 % 0.00 in
01:47 54.1 °F 46.3 °F 30.18 in West 1.9 mph 4.6 mph 75 % 0.00 in
01:58 53.8 °F 45.3 °F 30.17 in NNW 3.9 mph 9.2 mph 73 % 0.00 in
02:03 53.8 °F 45.0 °F 30.18 in NE 3.5 mph 11.5 mph 72 % 0.00 in
02:08 53.7 °F 44.9 °F 30.18 in NNE 3.3 mph 10.0 mph 72 % 0.00 in
02:13 53.6 °F 44.8 °F 30.18 in North 1.5 mph 7.0 mph 72 % 0.00 in
02:18 53.5 °F 45.1 °F 30.18 in North 4.6 mph 10.4 mph 73 % 0.00 in
02:23 53.4 °F 45.0 °F 30.18 in NNE 3.6 mph 8.1 mph 73 % 0.00 in
02:33 53.2 °F 44.8 °F 30.18 in WNW 1.9 mph 5.8 mph 73 % 0.00 in
02:38 53.1 °F 45.0 °F 30.19 in NW 6.2 mph 6.9 mph 74 % 0.00 in
02:44 53.0 °F 44.6 °F 30.19 in WSW 5.4 mph 11.0 mph 73 % 0.00 in
02:54 52.8 °F 44.4 °F 30.20 in NNE 2.6 mph 7.0 mph 73 % 0.00 in
02:59 52.7 °F 44.3 °F 30.19 in NNE 9.7 mph 15.0 mph 73 % 0.00 in
03:04 52.6 °F 44.2 °F 30.19 in NNW 6.6 mph 11.5 mph 73 % 0.00 in
03:09 52.5 °F 44.1 °F 30.19 in NNW 8.1 mph 11.5 mph 73 % 0.00 in
03:14 52.5 °F 43.7 °F 30.19 in NNE 4.8 mph 10.4 mph 72 % 0.00 in
03:19 52.4 °F 43.3 °F 30.19 in North 6.0 mph 11.5 mph 71 % 0.00 in
03:24 52.3 °F 43.2 °F 30.19 in NNW 4.0 mph 10.4 mph 71 % 0.00 in
03:29 52.2 °F 43.4 °F 30.20 in NW 5.5 mph 13.8 mph 72 % 0.00 in
03:35 52.2 °F 43.4 °F 30.19 in NNW 2.3 mph 6.9 mph 72 % 0.00 in
03:40 52.1 °F 43.3 °F 30.20 in NNW 4.7 mph 11.5 mph 72 % 0.00 in
03:45 52.0 °F 43.3 °F 30.20 in North 3.9 mph 9.2 mph 72 % 0.00 in
03:50 51.9 °F 43.5 °F 30.20 in NNW 3.4 mph 6.0 mph 73 % 0.00 in
03:55 51.8 °F 43.8 °F 30.21 in North 4.3 mph 8.1 mph 74 % 0.00 in
04:00 51.7 °F 43.3 °F 30.20 in NNE 1.8 mph 10.4 mph 73 % 0.00 in
04:05 51.6 °F 43.6 °F 30.21 in NW 4.2 mph 7.0 mph 74 % 0.00 in
04:10 51.5 °F 44.2 °F 30.21 in North 2.2 mph 4.0 mph 76 % 0.00 in
04:15 51.4 °F 43.7 °F 30.21 in NW 4.0 mph 10.4 mph 75 % 0.00 in
04:20 51.3 °F 43.6 °F 30.21 in NNE 4.7 mph 8.1 mph 75 % 0.00 in
04:26 51.2 °F 43.5 °F 30.21 in North 2.0 mph 12.0 mph 75 % 0.00 in
04:31 51.1 °F 43.1 °F 30.21 in North 7.0 mph 12.0 mph 74 % 0.00 in
04:41 51.0 °F 43.7 °F 30.22 in North 3.0 mph 9.0 mph 76 % 0.00 in
04:46 50.9 °F 43.9 °F 30.22 in North 5.0 mph 8.0 mph 77 % 0.00 in
04:51 50.7 °F 43.1 °F 30.23 in NNE 8.9 mph 11.0 mph 75 % 0.00 in
04:56 50.6 °F 43.0 °F 30.23 in NNE 8.0 mph 12.0 mph 75 % 0.00 in
05:01 50.6 °F 43.3 °F 30.22 in NNE 6.1 mph 11.5 mph 76 % 0.00 in
05:06 50.5 °F 43.6 °F 30.22 in North 6.2 mph 11.0 mph 77 % 0.00 in
05:11 50.5 °F 42.9 °F 30.23 in NE 6.3 mph 11.5 mph 75 % 0.00 in
05:16 50.4 °F 43.1 °F 30.22 in NNW 6.1 mph 10.4 mph 76 % 0.00 in
05:21 50.3 °F 43.0 °F 30.22 in NNE 7.8 mph 12.7 mph 76 % 0.00 in
05:26 50.3 °F 43.0 °F 30.23 in NNE 5.1 mph 10.4 mph 76 % 0.00 in
05:31 50.2 °F 42.9 °F 30.23 in North 5.9 mph 10.4 mph 76 % 0.00 in
05:36 50.1 °F 42.5 °F 30.24 in North 9.7 mph 17.3 mph 75 % 0.00 in
05:41 50.1 °F 42.8 °F 30.24 in NNE 9.8 mph 16.1 mph 76 % 0.00 in
05:46 50.0 °F 42.7 °F 30.24 in NNE 6.3 mph 11.5 mph 76 % 0.00 in
05:52 49.9 °F 42.6 °F 30.24 in NNW 6.2 mph 10.4 mph 76 % 0.00 in
05:57 49.8 °F 42.2 °F 30.25 in NNE 7.3 mph 15.0 mph 75 % 0.00 in
06:07 49.7 °F 42.4 °F 30.25 in NNE 8.0 mph 8.1 mph 76 % 0.00 in
06:17 49.5 °F 42.6 °F 30.26 in North 9.0 mph 11.5 mph 77 % 0.00 in
06:22 49.4 °F 42.5 °F 30.26 in NNE 7.4 mph 12.7 mph 77 % 0.00 in
06:27 49.3 °F 42.4 °F 30.26 in North 7.9 mph 11.5 mph 77 % 0.00 in
06:32 49.3 °F 42.7 °F 30.26 in North 5.1 mph 8.1 mph 78 % 0.00 in
06:37 49.2 °F 42.3 °F 30.26 in North 5.8 mph 5.8 mph 77 % 0.00 in
06:43 49.1 °F 42.5 °F 30.26 in NNE 6.2 mph 10.4 mph 78 % 0.00 in
06:48 49.1 °F 42.9 °F 30.26 in NNE 1.0 mph 6.9 mph 79 % 0.00 in
06:53 49.0 °F 42.8 °F 30.26 in NNE 4.1 mph 10.4 mph 79 % 0.00 in
06:58 48.9 °F 42.7 °F 30.27 in ENE 4.6 mph 10.4 mph 79 % 0.00 in
07:03 48.8 °F 42.6 °F 30.27 in NNE 5.5 mph 8.1 mph 79 % 0.00 in
07:08 48.7 °F 42.1 °F 30.27 in NNE 6.9 mph 11.5 mph 78 % 0.00 in
07:13 48.6 °F 42.4 °F 30.27 in NNE 4.2 mph 7.0 mph 79 % 0.00 in
07:18 48.5 °F 42.3 °F 30.27 in NNE 6.2 mph 9.2 mph 79 % 0.00 in
07:23 48.4 °F 41.9 °F 30.28 in North 7.1 mph 9.2 mph 78 % 0.00 in
07:28 48.4 °F 41.9 °F 30.28 in NNE 6.6 mph 10.4 mph 78 % 0.00 in
07:34 48.4 °F 41.9 °F 30.29 in NE 4.2 mph 8.1 mph 78 % 0.00 in
07:39 48.5 °F 42.0 °F 30.29 in NE 10.1 mph 16.1 mph 78 % 0.00 in
07:44 48.5 °F 41.3 °F 30.29 in North 11.0 mph 16.1 mph 76 % 0.00 in
07:49 48.6 °F 41.4 °F 30.29 in NNE 7.8 mph 11.5 mph 76 % 0.00 in
07:54 48.7 °F 41.5 °F 30.29 in NNE 6.1 mph 11.5 mph 76 % 0.00 in
07:59 48.6 °F 41.4 °F 30.30 in North 9.7 mph 15.0 mph 76 % 0.00 in
08:04 48.6 °F 40.7 °F 30.30 in North 15.0 mph 19.6 mph 74 % 0.00 in
08:09 48.6 °F 40.7 °F 30.30 in North 6.0 mph 15.0 mph 74 % 0.00 in
08:14 48.6 °F 40.7 °F 30.31 in NNW 12.0 mph 13.0 mph 74 % 0.00 in
08:19 48.5 °F 40.9 °F 30.31 in North 9.0 mph 15.0 mph 75 % 0.00 in
08:25 48.5 °F 40.9 °F 30.31 in NNE 9.0 mph 13.0 mph 75 % 0.00 in
08:30 48.5 °F 41.3 °F 30.31 in North 7.1 mph 11.5 mph 76 % 0.00 in
08:35 48.5 °F 41.3 °F 30.31 in NNE 8.0 mph 12.7 mph 76 % 0.00 in
08:40 48.6 °F 41.4 °F 30.31 in North 6.9 mph 10.4 mph 76 % 0.00 in
08:45 48.7 °F 41.5 °F 30.32 in NNE 5.0 mph 9.2 mph 76 % 0.00 in
08:50 48.7 °F 41.8 °F 30.32 in NNE 8.6 mph 11.5 mph 77 % 0.00 in
08:55 48.8 °F 41.9 °F 30.32 in NNE 5.1 mph 8.1 mph 77 % 0.00 in
09:00 48.9 °F 41.7 °F 30.32 in NNW 5.1 mph 6.9 mph 76 % 0.00 in
09:05 48.9 °F 41.7 °F 30.33 in NNE 4.2 mph 5.8 mph 76 % 0.00 in
09:10 49.0 °F 42.1 °F 30.33 in NNE 3.9 mph 6.9 mph 77 % 0.00 in
09:16 49.1 °F 41.9 °F 30.33 in North 6.0 mph 12.0 mph 76 % 0.00 in
09:21 49.2 °F 41.6 °F 30.33 in North 5.0 mph 10.0 mph 75 % 0.00 in
09:26 49.3 °F 41.0 °F 30.33 in North 5.0 mph 12.0 mph 73 % 0.00 in
09:31 49.5 °F 40.8 °F 30.33 in North 8.0 mph 12.0 mph 72 % 0.00 in
09:36 49.7 °F 41.4 °F 30.33 in NNE 6.0 mph 9.0 mph 73 % 0.00 in
09:41 50.0 °F 41.3 °F 30.33 in NNE 5.0 mph 12.0 mph 72 % 0.00 in
09:51 50.4 °F 41.3 °F 30.33 in NNE 6.0 mph 10.0 mph 71 % 0.00 in
09:56 50.6 °F 42.3 °F 30.33 in NNE 3.0 mph 10.0 mph 73 % 0.00 in
10:01 51.1 °F 42.4 °F 30.33 in NNE 2.6 mph 5.8 mph 72 % 0.00 in
10:06 51.7 °F 43.0 °F 30.33 in NNE 3.1 mph 4.6 mph 72 % 0.00 in
10:11 52.2 °F 42.7 °F 30.33 in North 3.0 mph 5.0 mph 70 % 0.00 in
10:16 52.4 °F 42.1 °F 30.33 in North 5.1 mph 8.0 mph 68 % 0.00 in
10:21 52.6 °F 42.3 °F 30.33 in NE 3.0 mph 5.8 mph 68 % 0.00 in
10:26 52.8 °F 42.1 °F 30.33 in NE 5.6 mph 8.1 mph 67 % 0.00 in
10:31 52.9 °F 41.8 °F 30.33 in NNE 4.9 mph 9.2 mph 66 % 0.00 in
10:36 53.0 °F 41.9 °F 30.33 in North 2.9 mph 4.6 mph 66 % 0.00 in
10:41 53.1 °F 42.4 °F 30.33 in NNE 2.4 mph 6.9 mph 67 % 0.00 in
10:46 53.2 °F 42.1 °F 30.33 in North 2.2 mph 4.6 mph 66 % 0.00 in
10:52 53.4 °F 42.3 °F 30.33 in NNE 1.3 mph 5.8 mph 66 % 0.00 in
10:57 53.7 °F 42.6 °F 30.33 in NNE 2.9 mph 5.8 mph 66 % 0.00 in
11:02 53.9 °F 42.4 °F 30.33 in NNE 4.2 mph 9.0 mph 65 % 0.00 in
11:07 54.1 °F 42.2 °F 30.33 in East 2.8 mph 5.0 mph 64 % 0.00 in
11:12 54.3 °F 42.4 °F 30.34 in NNW 2.3 mph 5.8 mph 64 % 0.00 in
11:17 54.7 °F 42.8 °F 30.33 in North 3.6 mph 7.0 mph 64 % 0.00 in
11:22 55.4 °F 42.6 °F 30.33 in ENE 4.2 mph 9.2 mph 62 % 0.00 in
11:27 56.2 °F 43.8 °F 30.33 in ENE 2.8 mph 5.0 mph 63 % 0.00 in
11:32 57.1 °F 43.8 °F 30.33 in NE 1.8 mph 6.9 mph 61 % 0.00 in
11:38 58.1 °F 43.8 °F 30.33 in NNW 3.3 mph 5.8 mph 59 % 0.00 in
11:43 59.0 °F 44.2 °F 30.33 in North 3.6 mph 4.6 mph 58 % 0.00 in
11:48 59.7 °F 43.5 °F 30.33 in NNE 1.9 mph 6.9 mph 55 % 0.00 in
11:58 60.5 °F 43.3 °F 30.33 in NNE 4.7 mph 6.9 mph 53 % 0.00 in
12:03 60.8 °F 41.5 °F 30.33 in NNE 4.4 mph 8.1 mph 49 % 0.00 in
12:08 61.2 °F 43.4 °F 30.32 in North 4.4 mph 6.0 mph 52 % 0.00 in
12:13 61.5 °F 44.2 °F 30.32 in North 3.1 mph 4.0 mph 53 % 0.00 in
12:18 61.6 °F 42.2 °F 30.32 in NE 3.0 mph 6.9 mph 49 % 0.00 in
12:23 61.8 °F 43.0 °F 30.32 in North 3.0 mph 8.1 mph 50 % 0.00 in
12:29 62.0 °F 42.6 °F 30.32 in NE 5.5 mph 9.2 mph 49 % 0.00 in
12:34 62.3 °F 42.9 °F 30.32 in North 3.8 mph 8.1 mph 49 % 0.00 in
12:39 62.2 °F 42.8 °F 30.32 in NE 4.2 mph 6.9 mph 49 % 0.00 in
12:44 62.1 °F 41.6 °F 30.32 in NNE 5.0 mph 10.4 mph 47 % 0.00 in
12:49 62.0 °F 41.0 °F 30.32 in NE 5.9 mph 9.2 mph 46 % 0.00 in
12:54 62.0 °F 41.5 °F 30.32 in North 3.0 mph 4.6 mph 47 % 0.00 in
12:59 62.2 °F 41.2 °F 30.31 in North 3.7 mph 6.0 mph 46 % 0.00 in
13:04 62.3 °F 42.3 °F 30.32 in NE 2.8 mph 4.6 mph 48 % 0.00 in
13:09 62.5 °F 41.4 °F 30.31 in NNE 2.1 mph 4.0 mph 46 % 0.00 in
13:14 62.7 °F 41.6 °F 30.32 in North 5.1 mph 6.0 mph 46 % 0.00 in
13:20 62.8 °F 43.9 °F 30.31 in NNE 2.6 mph 7.0 mph 50 % 0.00 in
13:25 63.0 °F 43.5 °F 30.31 in NNE 3.6 mph 3.6 mph 49 % 0.00 in
13:30 63.2 °F 44.2 °F 30.31 in North 3.1 mph 5.0 mph 50 % 0.00 in
13:35 63.4 °F 42.8 °F 30.31 in NNW 3.3 mph 5.8 mph 47 % 0.00 in
13:45 63.7 °F 41.9 °F 30.30 in NW 3.2 mph 5.8 mph 45 % 0.00 in
13:50 63.7 °F 41.9 °F 30.30 in WNW 3.2 mph 6.9 mph 45 % 0.00 in
13:55 63.7 °F 41.4 °F 30.30 in NW 3.0 mph 3.5 mph 44 % 0.00 in
14:00 63.7 °F 43.1 °F 30.30 in NNE 2.1 mph 4.6 mph 47 % 0.00 in
14:05 63.7 °F 41.9 °F 30.30 in North 3.3 mph 5.0 mph 45 % 0.00 in
14:10 63.6 °F 41.9 °F 30.30 in NNW 2.0 mph 7.0 mph 45 % 0.00 in
14:15 63.7 °F 42.5 °F 30.29 in NNW 2.7 mph 5.8 mph 46 % 0.00 in
14:20 63.8 °F 42.0 °F 30.29 in NW 2.0 mph 5.0 mph 45 % 0.00 in
14:26 63.8 °F 42.0 °F 30.30 in NW 0.2 mph 2.3 mph 45 % 0.00 in
14:31 63.8 °F 42.0 °F 30.30 in WNW 2.9 mph 3.5 mph 45 % 0.00 in
14:36 63.8 °F 40.9 °F 30.30 in WNW 1.9 mph 3.5 mph 43 % 0.00 in
14:41 63.8 °F 41.5 °F 30.30 in North 4.2 mph 5.0 mph 44 % 0.00 in
14:46 63.7 °F 42.5 °F 30.30 in NW 0.4 mph 3.0 mph 46 % 0.00 in
14:51 63.7 °F 43.6 °F 30.29 in North 3.4 mph 5.8 mph 48 % 0.00 in
14:56 63.7 °F 41.9 °F 30.29 in NNE 2.6 mph 3.5 mph 45 % 0.00 in
15:01 63.6 °F 41.9 °F 30.29 in WNW 2.1 mph 4.0 mph 45 % 0.00 in
15:06 63.5 °F 42.3 °F 30.29 in NNE 1.8 mph 3.5 mph 46 % 0.00 in
15:11 63.5 °F 42.3 °F 30.28 in NW 2.3 mph 4.0 mph 46 % 0.00 in
15:17 63.3 °F 41.0 °F 30.28 in WNW 2.9 mph 3.5 mph 44 % 0.00 in
15:22 63.2 °F 41.5 °F 30.28 in NNW 0.1 mph 2.3 mph 45 % 0.00 in
15:27 63.1 °F 41.4 °F 30.28 in West 2.5 mph 7.0 mph 45 % 0.00 in
15:32 62.9 °F 41.2 °F 30.28 in NNE 3.7 mph 5.8 mph 45 % 0.00 in
15:37 62.5 °F 40.3 °F 30.28 in WNW 1.0 mph 3.5 mph 44 % 0.00 in
15:42 62.3 °F 41.8 °F 30.28 in North 0.7 mph 3.5 mph 47 % 0.00 in
15:47 62.1 °F 41.6 °F 30.28 in WNW 3.8 mph 6.0 mph 47 % 0.00 in
15:52 61.8 °F 40.8 °F 30.28 in WNW 1.7 mph 3.5 mph 46 % 0.00 in
15:57 61.5 °F 40.5 °F 30.28 in NW 0.2 mph 3.5 mph 46 % 0.00 in
16:02 61.2 °F 40.2 °F 30.28 in North 2.4 mph 5.0 mph 46 % 0.00 in
16:08 61.0 °F 40.6 °F 30.28 in Calm   1.2 mph 47 % 0.00 in
16:13 60.8 °F 41.0 °F 30.28 in WNW 1.6 mph 3.5 mph 48 % 0.00 in
16:18 60.7 °F 40.9 °F 30.28 in NW 1.6 mph 4.6 mph 48 % 0.00 in
16:23 60.5 °F 40.2 °F 30.28 in West 1.2 mph 2.3 mph 47 % 0.00 in
16:33 60.2 °F 40.4 °F 30.28 in North 2.6 mph 5.0 mph 48 % 0.00 in
16:38 60.1 °F 39.2 °F 30.28 in WNW 1.2 mph 2.3 mph 46 % 0.00 in
16:43 60.0 °F 40.2 °F 30.27 in NW 1.0 mph 3.0 mph 48 % 0.00 in
16:48 60.0 °F 40.2 °F 30.27 in NNW 0.1 mph 3.5 mph 48 % 0.00 in
16:53 59.9 °F 40.1 °F 30.27 in NNE 1.6 mph 5.8 mph 48 % 0.00 in
16:59 59.8 °F 39.5 °F 30.28 in WNW 0.9 mph 3.5 mph 47 % 0.00 in
17:04 59.7 °F 40.0 °F 30.28 in NNE 2.8 mph 3.5 mph 48 % 0.00 in
17:09 59.5 °F 39.8 °F 30.28 in NNE 1.5 mph 3.5 mph 48 % 0.00 in
17:14 59.4 °F 39.7 °F 30.28 in NNE 0.9 mph 3.5 mph 48 % 0.00 in
17:19 59.3 °F 40.1 °F 30.29 in NW 1.6 mph 3.5 mph 49 % 0.00 in
17:24 59.3 °F 39.6 °F 30.29 in WNW 2.5 mph 6.0 mph 48 % 0.00 in
17:34 59.1 °F 39.9 °F 30.29 in NNW 0.9 mph 2.0 mph 49 % 0.00 in
17:39 59.0 °F 39.9 °F 30.29 in NW 1.0 mph 3.5 mph 49 % 0.00 in
17:50 58.7 °F 39.0 °F 30.29 in NNW 0.2 mph 1.2 mph 48 % 0.00 in
17:55 58.6 °F 40.0 °F 30.29 in WNW 1.1 mph 2.3 mph 50 % 0.00 in
18:05 58.3 °F 40.2 °F 30.29 in Calm     51 % 0.00 in
18:10 58.1 °F 40.1 °F 30.30 in NNW 0.1 mph 1.2 mph 51 % 0.00 in
18:15 57.9 °F 40.4 °F 30.30 in NNW 0.1 mph 1.2 mph 52 % 0.00 in
18:20 57.7 °F 40.7 °F 30.29 in North 1.6 mph 5.8 mph 53 % 0.00 in
18:25 57.4 °F 39.4 °F 30.29 in WNW 1.2 mph 4.6 mph 51 % 0.00 in
18:30 57.2 °F 39.2 °F 30.29 in NNE 1.5 mph 2.0 mph 51 % 0.00 in
18:35 57.0 °F 40.0 °F 30.29 in NNW 1.2 mph 2.3 mph 53 % 0.00 in
18:41 56.9 °F 39.9 °F 30.29 in Calm   3.0 mph 53 % 0.00 in
18:46 56.7 °F 39.7 °F 30.30 in North 0.9 mph 2.3 mph 53 % 0.00 in
18:51 56.6 °F 40.1 °F 30.30 in North 2.0 mph 4.0 mph 54 % 0.00 in
19:01 56.4 °F 40.0 °F 30.30 in WNW 1.6 mph 3.5 mph 54 % 0.00 in
19:06 56.3 °F 40.3 °F 30.30 in Calm   5.0 mph 55 % 0.00 in
19:11 56.2 °F 39.8 °F 30.30 in NNW 3.0 mph 6.0 mph 54 % 0.00 in
19:16 56.2 °F 39.8 °F 30.30 in North 1.6 mph 3.5 mph 54 % 0.00 in
19:21 56.2 °F 39.8 °F 30.31 in North 1.0 mph 3.0 mph 54 % 0.00 in
19:26 56.2 °F 40.2 °F 30.31 in NNW 1.0 mph 3.0 mph 55 % 0.00 in
19:31 56.1 °F 40.1 °F 30.31 in North 0.7 mph 3.5 mph 55 % 0.00 in
19:36 56.1 °F 40.2 °F 30.31 in North 2.0 mph 6.0 mph 55 % 0.00 in
19:41 56.0 °F 39.6 °F 30.31 in North 2.0 mph 7.0 mph 54 % 0.00 in
19:46 56.0 °F 40.1 °F 30.31 in NNE 3.7 mph 8.0 mph 55 % 0.00 in
19:56 56.0 °F 39.1 °F 30.31 in North 3.0 mph 9.0 mph 53 % 0.00 in
20:01 56.0 °F 39.1 °F 30.32 in NNE 4.7 mph 8.1 mph 53 % 0.00 in
20:06 56.1 °F 39.7 °F 30.32 in North 2.0 mph 8.0 mph 54 % 0.00 in
20:11 56.1 °F 39.7 °F 30.32 in North 3.0 mph 7.0 mph 54 % 0.00 in
20:16 56.2 °F 40.2 °F 30.32 in NNE 2.5 mph 5.8 mph 55 % 0.00 in
20:21 56.2 °F 40.7 °F 30.32 in NNE 3.0 mph 6.0 mph 56 % 0.00 in
20:26 56.2 °F 41.6 °F 30.32 in North 3.0 mph 8.0 mph 58 % 0.00 in
20:31 56.1 °F 42.0 °F 30.32 in NNE 2.8 mph 4.6 mph 59 % 0.00 in
20:36 56.1 °F 42.0 °F 30.32 in NNE 1.0 mph 7.0 mph 59 % 0.00 in
20:41 56.1 °F 43.3 °F 30.32 in North 2.0 mph 8.0 mph 62 % 0.00 in
20:46 56.1 °F 42.4 °F 30.33 in NNE 4.7 mph 8.1 mph 60 % 0.00 in
20:51 56.0 °F 42.3 °F 30.33 in NNE 5.0 mph 8.0 mph 60 % 0.00 in
20:56 55.9 °F 42.6 °F 30.33 in NNE 6.0 mph 10.0 mph 61 % 0.00 in
21:01 55.9 °F 43.1 °F 30.33 in NNE 5.6 mph 11.5 mph 62 % 0.00 in
21:06 55.8 °F 42.1 °F 30.33 in NNE 5.0 mph 12.0 mph 60 % 0.00 in
21:11 55.8 °F 42.5 °F 30.34 in North 5.0 mph 10.0 mph 61 % 0.00 in
21:16 55.7 °F 43.3 °F 30.34 in North 3.0 mph 9.0 mph 63 % 0.00 in
21:21 55.7 °F 43.7 °F 30.34 in North 3.0 mph 8.0 mph 64 % 0.00 in
21:26 55.6 °F 44.4 °F 30.35 in NNE 3.0 mph 8.0 mph 66 % 0.00 in
21:31 55.5 °F 43.5 °F 30.35 in NNE 3.0 mph 8.0 mph 64 % 0.00 in
21:36 55.4 °F 43.8 °F 30.35 in NNE 5.0 mph 8.0 mph 65 % 0.00 in
21:41 55.2 °F 42.4 °F 30.35 in NNE 7.0 mph 12.0 mph 62 % 0.00 in
21:46 55.1 °F 43.1 °F 30.35 in NNE 6.0 mph 12.0 mph 64 % 0.00 in
21:51 55.1 °F 44.3 °F 30.35 in North 5.0 mph 12.0 mph 67 % 0.00 in
21:56 55.0 °F 44.2 °F 30.35 in North 2.0 mph 6.0 mph 67 % 0.00 in
22:06 54.8 °F 43.6 °F 30.35 in NNE 2.0 mph 9.0 mph 66 % 0.00 in
22:11 54.6 °F 43.9 °F 30.35 in North 3.0 mph 7.0 mph 67 % 0.00 in
22:16 54.5 °F 43.8 °F 30.35 in North 5.0 mph 9.0 mph 67 % 0.00 in
22:21 54.4 °F 44.0 °F 30.35 in North 6.0 mph 8.0 mph 68 % 0.00 in
22:26 54.3 °F 43.9 °F 30.35 in North 3.0 mph 8.0 mph 68 % 0.00 in
22:31 54.2 °F 43.9 °F 30.35 in NNE 2.0 mph 9.0 mph 68 % 0.00 in
22:36 54.2 °F 44.2 °F 30.35 in NNE 3.0 mph 6.0 mph 69 % 0.00 in
22:41 54.1 °F 44.2 °F 30.35 in NE 2.0 mph 8.0 mph 69 % 0.00 in
22:46 54.1 °F 44.5 °F 30.35 in NE 5.0 mph 7.0 mph 70 % 0.00 in
22:51 54.0 °F 44.4 °F 30.36 in NE 3.0 mph 8.0 mph 70 % 0.00 in
22:56 53.9 °F 44.7 °F 30.36 in NNE 1.2 mph 4.6 mph 71 % 0.00 in
23:01 53.9 °F 44.7 °F 30.36 in North 2.1 mph 4.6 mph 71 % 0.00 in
23:06 53.9 °F 44.7 °F 30.35 in NNE 3.6 mph 6.9 mph 71 % 0.00 in
23:11 53.8 °F 44.6 °F 30.36 in North 3.8 mph 5.8 mph 71 % 0.00 in
23:16 53.7 °F 44.9 °F 30.36 in NNE 6.2 mph 8.1 mph 72 % 0.00 in
23:21 53.7 °F 44.9 °F 30.36 in NNE 0.8 mph 3.5 mph 72 % 0.00 in
23:26 53.7 °F 44.9 °F 30.35 in NNE 2.3 mph 5.8 mph 72 % 0.00 in
23:31 53.6 °F 44.8 °F 30.35 in NNE 0.1 mph 3.5 mph 72 % 0.00 in
23:36 53.6 °F 45.2 °F 30.35 in NNE 2.5 mph 4.6 mph 73 % 0.00 in
23:47 53.5 °F 45.1 °F 30.35 in NNE 1.1 mph 4.6 mph 73 % 0.00 in
23:52 53.5 °F 45.4 °F 30.35 in NNE 0.1 mph 3.5 mph 74 % 0.00 in
23:57 53.4 °F 45.3 °F 30.35 in ENE 2.0 mph 3.5 mph 74 % 0.00 in
Crab Meadow Weather
Compliments of Weather Underground - 3 mb

Script developed by  Jim McMurry - jmcmurry@mwt.net Adapted for the template by  Wim van der Kuil - Leuven-Template.eu

Astronomy: The rings of Saturn are made of ice and rock.